Regional Weather Roundup
Issued by NWS

Home | Current Version | Previous Version | Text Only | Print | Product List | Glossary Off
Versions: 1 2 3 4 5 6 7 8 9 10 11 12 13 14 15 16 17 18 19 20 21 22 23 24 25 26 27

000
ASUS45 KTFX 231810
RWRMT
MONTANA REGIONAL WEATHER ROUNDUP
NATIONAL WEATHER SERVICE GREAT FALLS MT
1100 AM MST FRI FEB 23 2018

NOTE: "FAIR" INDICATES FEW OR NO CLOUDS BELOW 12000 FEET WITH NO
SIGNIFICANT WEATHER AND/OR OBSTRUCTIONS TO VISIBILITY.

MTZ001>007-043-231900-
WEST OF THE DIVIDE

CITY           SKY/WX    TMP DP  RH WIND       PRES   REMARKS
KALISPELL      CLOUDY     9   2  73 CALM      30.21F
MISSOULA       CLOUDY    12   7  80 CALM      30.23S
BUTTE          FAIR       9   0  67 CALM      30.03F
MULLAN PASS    LGT SNOW   9   6  88 MISG      30.01S FOG
ANACONDA         N/A     12   1  62 NW3       30.07S
DEER LODGE       N/A      7   0  72 CALM      30.13S
HAMILTON         N/A     18   7  62 MISG      30.18F
PLAINS           N/A     12   3  67 CALM      30.25F
RONAN            N/A      9   5  85 SE6       30.23S WCI  -1
$$

MTZ008-052>055-231900-
SOUTHWEST MONTANA

CITY           SKY/WX    TMP DP  RH WIND       PRES   REMARKS
BOZEMAN        FAIR      10   2  69 NE5       30.10F
DILLON         FAIR       1   1 100 SW9       30.05F WCI -14
ENNIS          SUNNY     14   5  67 S7        30.06F WCI   4
W YELLOWSTONE  CLOUDY    10   3  72 CALM      29.95F
THREE FORKS      N/A     11   1  64 CALM      30.09F
TWIN BRIDGES     N/A     12   1  61 CALM      30.06F
$$

MTZ009-010-012-014-046-048-049-054-231900-
EAST SLOPES AND CENTRAL MONTANA

CITY           SKY/WX    TMP DP  RH WIND       PRES   REMARKS
CUT BANK       FAIR      16  10  77 SW28G36   29.85F HAZE    WCI  -4
GREAT FALLS    FAIR      17   7  64 SW28G35   29.96F WCI  -2
MALMSTROM AFB  SUNNY     16  10  75 SW28      29.98F WCI  -3
HELENA         FAIR       3  -4  72 N3        30.12F
AUGUSTA          N/A     15   9  75 W36G44    29.88F FOG     WCI  -6
BOWMANS CRNR   FLURRIES  13   7  74 S28       29.93F WCI  -7
CHOTEAU          N/A     19   5  53 SW5       29.92F
CONRAD           N/A      7  -1  69 S7        29.93  WCI  -4
FAIRFIELD      FAIR      14   5  67 S18       29.93F WCI  -3
POWER          FAIR      12  10  92 SW23      29.93F WCI  -7
RAYNESFORD     FAIR      22   5  47 SW17      29.94S WCI   8
ULM            FAIR      16   6  63 S10       29.98F WCI   4
WHITE SULPHUR    N/A     10   5  79 S18       29.99F WCI  -8
$$

MTZ011-013-016-021-045-047-050-051-231900-
NORTH CENTRAL MONTANA

CITY           SKY/WX    TMP DP  RH WIND       PRES   REMARKS
HAVRE          FAIR      -7 -12  79 SE3       30.04F
LEWISTOWN      FAIR      13   0  56 CALM      29.94F
N BAR RANCH    FAIR      12  -2  52 S5        29.95F
CHINOOK          N/A     -4  -9  77 S5        30.07F
GEYSER         FAIR      14   4  64 W3        29.93F
STANFORD       FAIR      16   8  70 SW3       29.91F
WINIFRED       FAIR       9   0  65 SE5       29.95F
$$

MTZ017>020-022>027-061-062-231900-
NORTHEAST MONTANA

CITY           SKY/WX    TMP DP  RH WIND       PRES   REMARKS
GLASGOW        FAIR      -4 -10  75 E12       30.12F WCI -22
GLENDIVE       FAIR      -2  -9  72 S12       30.20F WCI -20
JORDAN           N/A      0  -9  65 CALM      30.11F
MALTA          SUNNY     -4  -8  84 NE6       30.09S WCI -16
SIDNEY         FAIR       1  -7  68 SW12      30.23F WCI -16
WOLF POINT     FAIR      -2 -11  65 CALM      30.19F
PLENTYWOOD       N/A      0  -6  78 SE10      30.14F WCI -17
POPLAR           N/A     -2 -11  65 CALM      30.20F
SCOBEY           N/A      4  -4  69 S5        30.08F
$$

MTZ028>42-056>058-231900-
SOUTHCENTRAL AND SOUTHEAST MONTANA

CITY           SKY/WX    TMP DP  RH WIND       PRES   REMARKS
BAKER          FAIR       2  -3  80 CALM      30.16F
BILLINGS       FAIR       6  -3  66 SW10      30.07F WCI  -9
MILES CITY     FAIR      -6 -12  75 S10       30.18F WCI -24
BIG TIMBER     SUNNY     16   7  67 W29G37    30.01F HAZE    WCI  -4
EKALAKA          N/A     13  -3  48 S2        30.06F
FORSYTH          N/A     -6 -11  77 CALM      30.16F
HARLOWTON      FAIR      15   7  70 NW20G32   29.99F WCI  -2
LAUREL           N/A      5  -4  66 CALM      30.10F
$$

REGIONAL REPORTS...DAKOTAS

CITY           SKY/WX    TMP DP  RH WIND       PRES   REMARKS
WILLISTON      FAIR       2  -5  72 SW10      30.21F WCI -14
MINOT          FAIR      14   5  67 SW15      30.18F WCI  -1
DICKINSON      FAIR       9  -2  61 W6        30.16S WCI  -1
BEACH          FAIR       5  -2  72 SW8       30.19F WCI  -8
CROSBY         PTSUNNY    7   1  78 SW15      30.17F WCI -11
TIOGA          CLOUDY     3   1  92 W8        30.18S WCI -10
WATFORD CITY   FAIR       3  -2  78 SW12      30.20F WCI -13
BISMARCK       FAIR      14   3  61 W8        30.27S WCI   3
GRAND FORKS    FAIR      14   6  70 NW14      30.21R WCI  -1
FARGO          FAIR      17   8  67 W12       30.23R WCI   4
BUFFALO SD       N/A      1  -6  72 SE6       30.09S WCI -10
RAPID CITY     FAIR       9   3  77 SE5       30.18F
$$

REGIONAL REPORTS...WYOMING/IDAHO/WASHINGTON

CITY           SKY/WX    TMP DP  RH WIND       PRES   REMARKS
GILLETTE       FAIR      17   4  56 S8        30.04F WCI   7
SHERIDAN       FAIR       7  -2  66 CALM      30.05F
BUFFALO WY     FAIR      10   1  67 S5        29.98F
CODY           FAIR      19   4  51 SW10      30.00F WCI   7
YELLOWSTONE LA   N/A      0  -5  79 CALM      29.94S
IDAHO FALLS    PTSUNNY   18  12  77 SW9       30.10R WCI   7
SALMON         FAIR      21   9  59 VRB6      30.18S WCI  13
BOISE          FAIR      22  12  65 NW12      30.29S WCI  10
SPOKANE        FAIR      19  12  74 S14       30.27F WCI   6
$$

REGIONAL REPORTS...ALBERTA

CITY           SKY/WX    TMP DP  RH WIND       PRES   REMARKS
CALGARY        PTSUNNY   21  -2  35 SW10      29.67F WCI  10
CARDSTON         N/A     25   5  42 W9          N/A  WCI  15
EDMONTON       PTSUNNY   18   0  45 SW13      29.66F WCI   4
FORT MCMURRAY  SUNNY     25   7  46 SW8       29.53F WCI  16
HIGH LEVEL     CLOUDY    16  12  86 S5        29.44S
LETHBRIDGE     SUNNY     19   9  63 SW24G32   29.80F WCI   2
LLOYDMINSTER   MOSUNNY   10   3  72 S15G22    29.76F WCI  -6
MEDICINE HAT   SUNNY     18   5  57 S20G25    29.88F WCI   1
MILK RIVER       N/A     14   5  67 SW16        N/A  WCI  -2
ONEFOUR          N/A     -6  -9  84 E10         N/A  WCI -23
PEACE RIVER    PTSUNNY   27  18  69 W13G20    29.49F WCI  16
PINCHER CREEK  HVY SNOW  16   9  73 W48G59    29.77F VSB 1/4 WCI  -8
WATERTON GATE    N/A     18   3  53 SW38G54     N/A  WCI  -4
$$

REGIONAL REPORTS...SASKATCHEWAN

CITY           SKY/WX    TMP DP  RH WIND       PRES   REMARKS
CORONACH         N/A     10   5  79 S14         N/A  WCI  -5
CYPRESS HILLS    N/A     -2  -8  78 S9          N/A  WCI -18
ESTEVAN        CLOUDY    14   7  73 SW13      30.14F WCI   0
MOOSE JAW        N/A     16   7  67 SW12        N/A  WCI   3
PRINCE ALBERT  CRYSTALS   7   1  78 SW12      30.00F WCI  -9
REGINA         MOSUNNY   12   7  79 S8        30.08F WCI   1
ROCKGLEN         N/A      7   3  85 SW16        N/A  WCI -11
SASKATOON      MOSUNNY   10   9  92 SW10      30.01F WCI  -3
SWIFT CURRENT  FLURRIES   9   5  85 S22G28    29.93F WCI -11
VAL MARIE        N/A     -8 -13  77 SW3         N/A
$$




USA.gov is the U.S. government's official web portal to all federal, state and local government web resources and services.